CW9107 Weather Reports


time (UTC)temp
F
wind
direction
speed
knots
gust
knots
rain 1hr
in
rain 24hr
in
rain mn
in
humidity
%
barometer
mb
20260504215103 59 194 1.7 6.1 0.00 0.00 0.00 80 1012.9
20260504215004 59 200 1.7 6.1 0.00 0.00 0.00 80 1012.8
20260504214903 59 194 1.7 6.1 0.00 0.00 0.00 80 1012.8
20260504214804 59 188 1.7 6.1 0.00 0.00 0.00 79 1012.8
20260504214703 59 186 1.7 6.1 0.00 0.00 0.00 80 1012.8
20260504214604 59 190 1.7 6.1 0.00 0.00 0.00 80 1012.9
20260504214517 59 189 1.7 6.1 0.00 0.00 0.00 80 1012.8
20260504214404 59 197 1.7 5.2 0.00 0.00 0.00 80 1012.7
20260504214316 59 213 1.7 5.2 0.00 0.00 0.00 80 1012.7
20260504214204 59 204 1.7 5.2 0.00 0.00 0.00 79 1012.7
20260504214003 59 187 1.7 5.2 0.00 0.00 0.00 79 1012.7
20260504213917 59 191 1.7 5.2 0.00 0.00 0.00 79 1012.7
20260504213903 59 191 1.7 5.2 0.00 0.00 0.00 79 1012.7
20260504213820 60 195 1.7 5.2 0.00 0.00 0.00 80 1012.6
20260504213804 59 200 1.7 5.2 0.00 0.00 0.00 80 1012.6
20260504213503 59 200 1.7 5.2 0.00 0.00 0.00 80 1012.7
20260504213404 59 196 1.7 5.2 0.00 0.00 0.00 80 1012.6
20260504213303 59 197 1.7 5.2 0.00 0.00 0.00 80 1012.7
20260504213205 59 206 1.7 5.2 0.00 0.00 0.00 80 1012.6
20260504213103 59 216 1.7 6.1 0.00 0.00 0.00 79 1012.6
20260504213004 59 214 1.7 6.1 0.00 0.00 0.00 79 1012.7
20260504212917 59 224 1.7 6.1 0.00 0.00 0.00 80 1012.7
20260504212903 59 225 1.7 6.1 0.00 0.00 0.00 80 1012.7
20260504212803 59 210 1.7 8.7 0.00 0.00 0.00 80 1012.7
20260504212718 59 206 1.7 8.7 0.00 0.00 0.00 80 1012.7
20260504212604 59 207 1.7 8.7 0.00 0.00 0.00 81 1012.7
20260504212403 59 195 2.6 8.7 0.00 0.00 0.00 80 1012.7
20260504212304 59 189 2.6 8.7 0.00 0.00 0.00 80 1012.7
20260504212203 59 184 2.6 8.7 0.00 0.00 0.00 80 1012.8
20260504212103 59 184 2.6 8.7 0.00 0.00 0.00 80 1012.8
20260504212003 59 183 2.6 8.7 0.00 0.00 0.00 80 1012.9
20260504211903 59 182 2.6 8.7 0.00 0.00 0.00 80 1012.8
20260504211803 59 186 2.6 6.1 0.00 0.00 0.00 80 1012.9
20260504211703 59 187 2.6 6.1 0.00 0.00 0.00 80 1012.8
20260504211603 59 186 2.6 6.1 0.00 0.00 0.00 80 1012.9
20260504211503 59 187 2.6 6.1 0.00 0.00 0.00 80 1012.9
20260504211318 59 192 1.7 6.1 0.00 0.00 0.00 80 1012.9
20260504211303 59 195 1.7 6.1 0.00 0.00 0.00 80 1012.9
20260504211203 59 204 1.7 6.1 0.00 0.00 0.00 80 1012.8
20260504211003 59 205 1.7 4.3 0.00 0.00 0.00 80 1012.8
20260504210903 59 202 1.7 6.1 0.00 0.00 0.00 80 1012.7
20260504210803 59 213 1.7 6.1 0.00 0.00 0.00 80 1012.7
20260504210718 59 203 1.7 6.1 0.00 0.00 0.00 80 1012.7
20260504210703 59 197 1.7 6.1 0.00 0.00 0.00 80 1012.7
20260504210603 59 193 1.7 6.1 0.00 0.00 0.00 80 1012.7
20260504210517 59 199 1.7 6.1 0.00 0.00 0.00 80 1012.7
20260504210403 59 202 1.7 6.1 0.00 0.00 0.00 80 1012.8
20260504210203 59 208 2.6 6.1 0.00 0.00 0.00 79 1012.7
20260504210117 59 205 2.6 6.1 0.00 0.00 0.00 79 1012.7
20260504210104 59 204 2.6 6.1 0.00 0.00 0.00 80 1012.8
20260504210004 59 201 2.6 6.1 0.00 0.00 0.00 80 1012.8
20260504205916 59 205 2.6 6.1 0.00 0.00 0.00 80 1012.7
20260504205803 59 189 2.6 6.1 0.00 0.00 0.00 79 1012.7
20260504205618 59 194 2.6 7.8 0.00 0.00 0.00 80 1012.7
20260504205603 59 191 2.6 7.8 0.00 0.00 0.00 80 1012.7
20260504205503 59 184 2.6 7.8 0.00 0.00 0.00 80 1012.7
20260504205304 59 173 2.6 7.8 0.00 0.00 0.00 79 1012.7
20260504205203 59 173 2.6 7.8 0.00 0.00 0.00 80 1012.7
20260504205117 59 172 2.6 7.8 0.00 0.00 0.00 79 1012.7
20260504205103 59 173 2.6 7.8 0.00 0.00 0.00 79 1012.7
20260504205003 59 171 2.6 7.8 0.00 0.00 0.00 79 1012.7
20260504204703 59 180 2.6 7.0 0.00 0.00 0.00 79 1012.6
20260504204604 60 178 2.6 7.0 0.00 0.00 0.00 80 1012.7
20260504204503 60 177 2.6 7.0 0.00 0.00 0.00 79 1012.7
20260504204403 60 173 1.7 7.0 0.00 0.00 0.00 80 1012.7
20260504204318 60 180 1.7 6.1 0.00 0.00 0.00 80 1012.7
20260504204303 60 179 1.7 6.1 0.00 0.00 0.00 79 1012.7
20260504204203 60 175 1.7 6.1 0.00 0.00 0.00 79 1012.7
20260504204004 60 186 1.7 6.1 0.00 0.00 0.00 79 1012.7
20260504203903 60 187 1.7 6.1 0.00 0.00 0.00 80 1012.7
20260504203803 60 194 1.7 6.1 0.00 0.00 0.00 80 1012.7
20260504203603 59 190 1.7 8.7 0.00 0.00 0.00 79 1012.7
20260504203503 60 201 1.7 8.7 0.00 0.00 0.00 80 1012.7
20260504203417 59 202 1.7 8.7 0.00 0.00 0.00 80 1012.7
20260504203403 59 200 2.6 8.7 0.00 0.00 0.00 80 1012.7
20260504203318 60 204 2.6 8.7 0.00 0.00 0.00 80 1012.7
20260504203303 60 201 2.6 8.7 0.00 0.00 0.00 80 1012.7
20260504203003 59 189 2.6 8.7 0.00 0.00 0.00 80 1012.7
20260504202903 59 187 2.6 8.7 0.00 0.00 0.00 80 1012.6
20260504202704 59 182 1.7 8.7 0.00 0.00 0.00 80 1012.5
20260504202603 59 191 1.7 6.1 0.00 0.00 0.00 79 1012.6
20260504202503 59 189 1.7 6.1 0.00 0.00 0.00 79 1012.6
20260504202403 59 189 1.7 6.1 0.00 0.00 0.00 79 1012.5
20260504202304 59 186 2.6 6.1 0.00 0.00 0.00 79 1012.5
20260504202203 59 183 1.7 6.1 0.00 0.00 0.00 80 1012.5
20260504202117 59 191 1.7 6.1 0.00 0.00 0.00 80 1012.4
20260504202103 59 198 1.7 6.1 0.00 0.00 0.00 80 1012.5
20260504202003 59 198 1.7 6.1 0.00 0.00 0.00 80 1012.6
20260504201803 59 188 2.6 6.1 0.00 0.00 0.00 80 1012.6
20260504201703 59 185 2.6 6.1 0.00 0.00 0.00 80 1012.7
20260504201603 59 177 2.6 7.8 0.00 0.00 0.00 79 1012.6
20260504201517 59 174 2.6 7.8 0.00 0.00 0.00 79 1012.7
20260504201503 59 174 2.6 7.8 0.00 0.00 0.00 80 1012.8
20260504201403 59 177 2.6 7.8 0.00 0.00 0.00 80 1012.8
20260504201203 59 179 2.6 7.8 0.00 0.00 0.00 80 1012.8
20260504201103 59 180 2.6 7.8 0.00 0.00 0.00 79 1012.8
20260504201003 59 178 2.6 7.8 0.00 0.00 0.00 79 1012.8
20260504200903 59 182 2.6 7.8 0.00 0.00 0.00 79 1012.8
20260504200803 59 193 2.6 7.8 0.00 0.00 0.00 79 1012.8
20260504200703 59 200 1.7 7.8 0.00 0.00 0.00 79 1012.8
20260504200603 59 220 1.7 5.2 0.00 0.00 0.00 80 1012.8
20260504200503 59 233 1.7 5.2 0.00 0.00 0.00 79 1012.8
20260504200403 59 228 1.7 5.2 0.00 0.00 0.00 79 1012.7
20260504200303 59 213 1.7 5.2 0.00 0.00 0.00 79 1012.8
20260504200203 59 210 1.7 7.0 0.00 0.00 0.00 80 1012.8
20260504200004 60 200 1.7 7.0 0.00 0.00 0.00 80 1012.8
20260504195918 59 195 1.7 7.0 0.00 0.00 0.00 80 1012.8
20260504195903 59 191 2.6 7.0 0.00 0.00 0.00 80 1012.8
20260504195803 59 180 2.6 7.0 0.00 0.00 0.00 80 1012.9
20260504195603 59 181 2.6 7.0 0.00 0.00 0.00 80 1012.7
20260504195503 59 176 2.6 7.0 0.00 0.00 0.00 80 1012.8
20260504195403 59 174 2.6 9.6 0.00 0.00 0.00 80 1012.8
20260504195318 59 174 2.6 9.6 0.00 0.00 0.00 80 1012.7
20260504195304 59 175 2.6 9.6 0.00 0.00 0.00 80 1012.7
20260504195203 59 180 2.6 9.6 0.00 0.00 0.00 80 1012.7
20260504195117 59 179 2.6 9.6 0.00 0.00 0.00 80 1012.7
20260504195017 59 177 2.6 9.6 0.00 0.00 0.00 80 1012.6
20260504195006 59 178 2.6 9.6 0.00 0.00 0.00 80 1012.7
20260504194717 59 182 2.6 9.6 0.00 0.00 0.00 80 1012.7
20260504194703 59 182 2.6 9.6 0.00 0.00 0.00 80 1012.7
20260504194618 59 182 2.6 9.6 0.00 0.00 0.00 80 1012.8
20260504194603 59 183 2.6 9.6 0.00 0.00 0.00 80 1012.8
20260504194417 59 188 2.6 7.0 0.00 0.00 0.00 81 1012.6
20260504194304 59 184 2.6 7.0 0.00 0.00 0.00 81 1012.6
20260504194218 59 182 2.6 7.0 0.00 0.00 0.00 81 1012.7
20260504194103 59 184 2.6 8.7 0.00 0.00 0.00 81 1012.7
20260504193903 59 183 2.6 8.7 0.00 0.00 0.00 81 1012.7
20260504193803 59 186 2.6 8.7 0.00 0.00 0.00 81 1012.6
20260504193703 59 182 3.5 8.7 0.00 0.00 0.00 81 1012.7
20260504193603 59 176 2.6 8.7 0.00 0.00 0.00 81 1012.8
20260504193503 59 171 2.6 8.7 0.00 0.00 0.00 81 1012.7
20260504193403 58 174 2.6 8.7 0.00 0.00 0.00 81 1012.6
20260504193303 58 175 2.6 8.7 0.00 0.00 0.00 81 1012.6
20260504193203 58 173 2.6 8.7 0.00 0.00 0.00 81 1012.6
20260504193103 58 175 2.6 7.8 0.00 0.00 0.00 80 1012.6
20260504192903 58 186 2.6 7.8 0.00 0.00 0.00 81 1012.7
20260504192803 58 181 2.6 7.8 0.00 0.00 0.00 80 1012.7
20260504192703 59 186 1.7 6.1 0.00 0.00 0.00 80 1012.8
20260504192603 59 195 1.7 6.1 0.00 0.00 0.00 81 1012.8
20260504192503 59 203 1.7 6.1 0.00 0.00 0.00 80 1012.8
20260504192417 59 201 1.7 6.1 0.00 0.00 0.00 81 1012.8
20260504192404 59 202 1.7 6.1 0.00 0.00 0.00 81 1012.8
20260504192304 59 199 1.7 7.0 0.00 0.00 0.00 81 1012.7
20260504192103 59 198 1.7 7.0 0.00 0.00 0.00 81 1012.7
20260504192003 59 192 2.6 7.8 0.00 0.00 0.00 81 1012.8
20260504191903 58 192 2.6 7.8 0.00 0.00 0.00 81 1012.7
20260504191803 58 198 2.6 7.8 0.00 0.00 0.00 81 1012.7
20260504191703 58 188 2.6 7.8 0.00 0.00 0.00 81 1012.7
20260504191603 58 184 2.6 7.8 0.00 0.00 0.00 81 1012.8
20260504191503 58 180 2.6 7.8 0.00 0.00 0.00 81 1012.8
20260504191404 58 175 2.6 7.8 0.00 0.00 0.00 81 1012.8
20260504191303 58 178 2.6 7.8 0.00 0.00 0.00 81 1012.8
20260504191205 58 180 2.6 7.8 0.00 0.00 0.00 81 1012.8
20260504191103 58 180 2.6 7.8 0.00 0.00 0.00 81 1012.9
20260504191003 58 178 2.6 7.0 0.00 0.00 0.00 81 1012.8
20260504190903 58 178 2.6 7.0 0.00 0.00 0.00 81 1012.8
20260504190803 58 178 2.6 7.0 0.00 0.00 0.00 81 1012.8
20260504190703 58 179 2.6 7.0 0.00 0.00 0.00 81 1012.7
20260504190603 58 177 2.6 7.0 0.00 0.00 0.00 81 1012.8
20260504190504 58 176 2.6 7.0 0.00 0.00 0.00 81 1012.7
20260504190303 58 176 2.6 9.6 0.00 0.00 0.00 81 1012.7
20260504190203 58 173 2.6 9.6 0.00 0.00 0.00 81 1012.7
20260504190003 59 184 2.6 9.6 0.00 0.00 0.00 81 1012.7
20260504185903 58 181 2.6 9.6 0.00 0.00 0.00 81 1012.7
20260504185804 58 176 2.6 9.6 0.00 0.00 0.00 81 1012.6
20260504185703 58 182 2.6 9.6 0.00 0.00 0.00 81 1012.8
20260504185603 58 187 2.6 9.6 0.00 0.00 0.00 82 1012.7
20260504185503 58 187 2.6 9.6 0.00 0.00 0.00 82 1012.6
20260504185403 58 200 2.6 6.1 0.00 0.00 0.00 82 1012.7
20260504185304 58 198 2.6 6.1 0.00 0.00 0.00 82 1012.6
20260504185203 58 189 2.6 6.1 0.00 0.00 0.00 81 1012.7
20260504185103 58 187 2.6 8.7 0.00 0.00 0.00 82 1012.7
20260504185003 58 178 2.6 8.7 0.00 0.00 0.00 81 1012.7
20260504184918 58 177 2.6 8.7 0.00 0.00 0.00 81 1012.7
20260504184903 58 177 2.6 8.7 0.00 0.00 0.00 81 1012.7
20260504184803 58 175 2.6 8.7 0.00 0.00 0.00 82 1012.7
20260504184603 58 180 2.6 8.7 0.00 0.00 0.00 82 1012.6
20260504184503 58 177 2.6 8.7 0.00 0.00 0.00 82 1012.6
20260504184403 58 177 2.6 8.7 0.00 0.00 0.00 82 1012.6
20260504184304 58 177 2.6 8.7 0.00 0.00 0.00 81 1012.6
20260504184203 58 180 2.6 8.7 0.00 0.00 0.00 81 1012.7
20260504184103 58 179 2.6 8.7 0.00 0.00 0.00 82 1012.6
20260504184003 58 176 2.6 7.0 0.00 0.00 0.00 82 1012.7
20260504183903 58 178 2.6 7.0 0.00 0.00 0.00 82 1012.5
20260504183703 58 174 2.6 7.0 0.00 0.00 0.00 82 1012.6
20260504183603 58 177 2.6 8.7 0.00 0.00 0.00 82 1012.5
20260504183503 58 177 2.6 8.7 0.00 0.00 0.00 82 1012.6
20260504183403 58 175 2.6 8.7 0.00 0.00 0.00 82 1012.6
20260504183218 58 169 3.5 8.7 0.00 0.00 0.00 83 1012.6
20260504183203 58 169 2.6 8.7 0.00 0.00 0.00 83 1012.6
20260504183104 58 168 2.6 8.7 0.00 0.00 0.00 83 1012.5
20260504182903 58 171 2.6 8.7 0.00 0.00 0.00 82 1012.6
20260504182803 58 172 2.6 8.7 0.00 0.00 0.00 82 1012.6
20260504182703 58 174 2.6 8.7 0.00 0.00 0.00 82 1012.6
20260504182503 58 175 2.6 8.7 0.00 0.00 0.00 83 1012.6
20260504182403 58 179 2.6 8.7 0.00 0.00 0.00 83 1012.6
20260504182317 58 182 2.6 8.7 0.00 0.00 0.00 83 1012.5
20260504182304 58 185 2.6 8.7 0.00 0.00 0.00 83 1012.5
20260504182204 58 193 2.6 8.7 0.00 0.00 0.00 83 1012.5
20260504182003 58 192 2.6 8.7 0.00 0.00 0.00 83 1012.6
20260504181903 58 198 2.6 8.7 0.00 0.00 0.00 83 1012.6
20260504181803 58 209 2.6 8.7 0.00 0.00 0.00 83 1012.5
20260504181703 58 206 1.7 8.7 0.00 0.00 0.00 83 1012.6
20260504181603 58 201 1.7 6.1 0.00 0.00 0.00 83 1012.6
20260504181503 58 191 1.7 7.8 0.00 0.00 0.00 84 1012.5
20260504181403 58 176 1.7 8.7 0.00 0.00 0.00 84 1012.5
20260504181303 58 179 1.7 8.7 0.00 0.00 0.00 84 1012.5
20260504181204 58 179 1.7 8.7 0.00 0.00 0.00 84 1012.4
20260504181105 58 192 1.7 8.7 0.00 0.00 0.00 84 1012.5
20260504180904 58 203 1.7 8.7 0.00 0.00 0.00 84 1012.5
20260504180803 58 195 1.7 8.7 0.00 0.00 0.00 84 1012.5
20260504180703 58 197 1.7 8.7 0.00 0.00 0.00 84 1012.5
20260504180604 58 218 1.7 8.7 0.00 0.00 0.00 84 1012.5
20260504180518 58 208 1.7 8.7 0.00 0.00 0.00 84 1012.5
20260504180504 58 215 1.7 8.7 0.00 0.00 0.00 85 1012.6
20260504180403 58 219 1.7 8.7 0.00 0.00 0.00 85 1012.4
20260504180203 58 197 1.7 8.7 0.00 0.00 0.00 85 1012.4
20260504180103 58 184 1.7 8.7 0.00 0.00 0.00 85 1012.4
20260504180006 57 181 1.7 8.7 0.00 0.00 0.00 85 1012.4
20260504175917 57 177 1.7 8.7 0.00 0.00 0.00 85 1012.4
20260504175903 57 176 2.6 8.7 0.00 0.00 0.00 85 1012.4
20260504175803 57 176 2.6 8.7 0.00 0.00 0.00 85 1012.4
20260504175603 57 175 2.6 8.7 0.00 0.00 0.00 84 1012.4
20260504175518 57 178 2.6 8.7 0.00 0.00 0.00 84 1012.4
20260504175503 57 179 2.6 8.7 0.00 0.00 0.00 84 1012.4
20260504175403 57 185 2.6 7.0 0.00 0.00 0.00 85 1012.3
20260504175317 57 185 2.6 7.0 0.00 0.00 0.00 85 1012.4
20260504175203 57 183 2.6 7.0 0.00 0.00 0.00 85 1012.4
20260504175004 57 181 2.6 7.8 0.00 0.00 0.00 85 1012.5
20260504174903 57 181 2.6 7.8 0.00 0.00 0.00 85 1012.3
20260504174803 57 177 2.6 7.8 0.00 0.00 0.00 84 1012.3
20260504174703 57 173 2.6 7.8 0.00 0.00 0.00 85 1012.3
20260504174603 57 176 2.6 7.8 0.00 0.00 0.00 85 1012.3
20260504174504 57 172 2.6 7.8 0.00 0.00 0.00 85 1012.3
20260504174418 57 172 2.6 7.8 0.00 0.00 0.00 85 1012.3
20260504174403 57 172 2.6 7.8 0.00 0.00 0.00 85 1012.3
20260504174303 57 171 2.6 7.8 0.00 0.00 0.00 85 1012.3
20260504174103 57 173 2.6 9.6 0.00 0.00 0.00 84 1012.3
20260504174003 57 173 3.5 9.6 0.00 0.00 0.00 84 1012.3
20260504173917 57 171 3.5 9.6 0.00 0.00 0.00 84 1012.3
20260504173903 57 172 3.5 9.6 0.00 0.00 0.00 84 1012.3
20260504173803 57 171 2.6 9.6 0.00 0.00 0.00 84 1012.3
20260504173716 57 173 2.6 9.6 0.00 0.00 0.00 84 1012.2
20260504173603 57 172 2.6 9.6 0.00 0.00 0.00 84 1012.3
20260504173418 57 171 2.6 9.6 0.00 0.00 0.00 84 1012.4
20260504173403 57 172 2.6 9.6 0.00 0.00 0.00 84 1012.3
20260504173303 57 175 2.6 9.6 0.00 0.00 0.00 84 1012.4
20260504173103 57 179 2.6 7.8 0.00 0.00 0.00 85 1012.3
20260504173016 57 180 2.6 7.8 0.00 0.00 0.00 85 1012.3
20260504173004 57 180 2.6 7.8 0.00 0.00 0.00 85 1012.2
20260504172903 57 183 2.6 7.8 0.00 0.00 0.00 85 1012.3
20260504172703 57 187 2.6 7.8 0.00 0.00 0.00 85 1012.3
20260504172617 57 185 2.6 7.8 0.00 0.00 0.00 85 1012.3
20260504172603 57 187 2.6 7.8 0.00 0.00 0.00 85 1012.3
20260504172518 57 183 2.6 7.8 0.00 0.00 0.00 85 1012.3
20260504172503 57 183 1.7 7.8 0.00 0.00 0.00 85 1012.3
20260504172203 57 181 2.6 7.0 0.00 0.00 0.00 85 1012.2
20260504172103 57 175 2.6 7.8 0.00 0.00 0.00 85 1012.2
20260504172003 57 175 2.6 7.8 0.00 0.00 0.00 85 1012.3
20260504171903 57 177 2.6 7.8 0.00 0.00 0.00 85 1012.1
20260504171803 57 174 2.6 8.7 0.00 0.00 0.00 85 1012.2
20260504171716 57 173 2.6 8.7 0.00 0.00 0.00 85 1012.2
20260504171703 57 172 2.6 8.7 0.00 0.00 0.00 85 1012.2
20260504171603 57 171 2.6 8.7 0.00 0.00 0.00 85 1012.2
20260504171403 57 169 2.6 8.7 0.00 0.00 0.00 85 1012.2
20260504171303 57 168 2.6 8.7 0.00 0.00 0.00 85 1012.2
20260504171203 57 170 2.6 8.7 0.00 0.00 0.00 85 1012.2
20260504171103 57 173 2.6 8.7 0.00 0.00 0.00 85 1012.1
20260504171003 57 173 2.6 8.7 0.00 0.00 0.00 85 1012.1
20260504170904 57 171 2.6 8.7 0.00 0.00 0.00 85 1012.2
20260504170803 57 168 2.6 8.7 0.00 0.00 0.00 85 1012.2
20260504170704 57 168 2.6 8.7 0.00 0.00 0.00 85 1012.1
20260504170603 57 166 2.6 9.6 0.00 0.00 0.00 85 1012.1
20260504170503 57 164 2.6 9.6 0.00 0.00 0.00 85 1012.1
20260504170405 57 161 2.6 9.6 0.00 0.00 0.00 85 1012.2
20260504170303 57 160 2.6 9.6 0.00 0.00 0.00 85 1012.1
20260504170204 57 161 2.6 9.6 0.00 0.00 0.00 86 1012.1
20260504160403 56 159 2.6 9.6 0.00 0.00 0.00 86 1011.8
20260504160303 56 158 2.6 9.6 0.00 0.00 0.00 86 1011.8
20260504160203 56 157 2.6 9.6 0.00 0.00 0.00 86 1011.8
20260504160104 56 156 2.6 9.6 0.00 0.00 0.00 87 1011.8
20260504151104 55 162 3.5 11.3 0.00 0.00 0.00 87 1011.4
20260504151005 55 163 3.5 11.3 0.00 0.00 0.00 87 1011.3
20260504150903 55 165 3.5 11.3 0.00 0.00 0.00 87 1011.4
20260504150805 55 165 3.5 11.3 0.00 0.00 0.00 87 1011.4
20260504150705 55 165 3.5 11.3 0.00 0.00 0.00 87 1011.4
20260504150604 55 165 3.5 11.3 0.00 0.00 0.00 87 1011.4
20260504150503 55 167 3.5 11.3 0.00 0.00 0.00 87 1011.4
20260504150419 55 166 3.5 11.3 0.00 0.00 0.00 87 1011.3
20260504150404 55 167 3.5 11.3 0.00 0.00 0.00 87 1011.5
20260504150303 55 166 3.5 8.7 0.00 0.00 0.00 87 1011.3
20260504150103 55 162 3.5 8.7 0.00 0.00 0.00 87 1011.3
20260504141205 54 160 2.6 8.7 0.00 0.00 0.00 87 1011.0
20260504141105 54 158 2.6 8.7 0.00 0.00 0.00 87 1011.0
20260504141005 54 155 2.6 8.7 0.00 0.00 0.00 87 1011.0
20260504140906 54 154 2.6 8.7 0.00 0.00 0.00 87 1010.9
20260504140805 54 157 2.6 8.7 0.00 0.00 0.00 87 1011.0
20260504140705 54 156 2.6 8.7 0.00 0.00 0.00 87 1010.9
20260504140605 54 155 2.6 7.0 0.00 0.00 0.00 87 1010.9
20260504140505 54 158 2.6 7.0 0.00 0.00 0.00 87 1010.9
20260504140405 54 156 2.6 7.0 0.00 0.00 0.00 87 1010.9
20260504140104 54 157 2.6 7.0 0.00 0.00 0.00 87 1010.8
20260504130703 54 153 2.6 7.8 0.00 0.00 0.00 87 1010.2
20260504130620 54 152 2.6 7.8 0.00 0.00 0.00 87 1010.3
20260504130603 54 150 2.6 7.8 0.00 0.00 0.00 87 1010.3
20260504130504 54 153 2.6 7.8 0.00 0.00 0.00 87 1010.2
20260504130303 54 148 2.6 7.8 0.00 0.00 0.00 87 1010.3
20260504130220 54 148 2.6 7.8 0.00 0.00 0.00 87 1010.2
20260504130205 54 147 2.6 7.8 0.00 0.00 0.00 87 1010.2
20260504130104 54 146 3.5 9.6 0.00 0.00 0.00 87 1010.3
20260504120204 54 162 3.5 9.6 0.00 0.00 0.00 87 1010.0
20260504120103 54 162 3.5 9.6 0.00 0.00 0.00 87 1010.0
20260504110718 53 159 3.5 8.7 0.00 0.00 0.00 87 1009.8
20260504110703 53 160 2.6 8.7 0.00 0.00 0.00 87 1009.8
20260504110603 53 155 2.6 8.7 0.00 0.00 0.00 87 1009.7
20260504110517 53 154 2.6 8.7 0.00 0.00 0.00 87 1009.7
20260504110418 53 155 2.6 8.7 0.00 0.00 0.00 87 1009.6
20260504110403 53 154 2.6 8.7 0.00 0.00 0.00 87 1009.6
20260504110105 53 157 2.6 8.7 0.00 0.00 0.00 87 1009.7
20260504100603 53 142 2.6 8.7 0.00 0.00 0.00 86 1009.2
20260504100503 53 143 2.6 7.0 0.00 0.00 0.00 86 1009.2
20260504100403 53 144 2.6 7.0 0.00 0.00 0.00 86 1009.1
20260504100303 53 146 2.6 7.0 0.00 0.00 0.00 86 1009.2
20260504100203 53 149 2.6 7.0 0.00 0.00 0.00 86 1009.2
20260504100103 53 149 2.6 7.0 0.00 0.00 0.00 86 1009.1
20260504082003 49 0 0.0 0.0 0.00 0.00 0.00 85 1008.0
20260504081904 49 0 0.0 0.0 0.00 0.00 0.00 85 1007.9
20260504081803 49 0 0.0 0.0 0.00 0.00 0.00 85 1007.9
20260504081604 49 0 0.0 0.0 0.00 0.00 0.00 85 1007.9
20260504081504 49 0 0.0 0.0 0.00 0.00 0.00 85 1007.9
20260504081403 49 0 0.0 0.0 0.00 0.00 0.00 85 1007.8
20260504081304 49 0 0.0 0.0 0.00 0.00 0.00 85 1007.9
20260504081203 49 309 0.0 0.9 0.00 0.00 0.00 85 1007.8
20260504081119 49 309 0.0 0.9 0.00 0.00 0.00 85 1007.8
20260504081104 49 309 0.0 0.9 0.00 0.00 0.00 85 1007.7
20260504081003 49 309 0.0 0.9 0.00 0.00 0.00 85 1007.8
20260504080803 49 309 0.0 0.9 0.00 0.00 0.00 85 1007.7
20260504080703 49 309 0.0 0.9 0.00 0.00 0.00 85 1007.9
20260504080603 49 309 0.0 0.9 0.00 0.00 0.00 85 1007.8
20260504080503 49 309 0.0 0.9 0.00 0.00 0.00 85 1007.8
20260504080317 49 309 0.0 0.9 0.00 0.00 0.00 85 1007.8
20260504080203 49 0 0.0 0.0 0.00 0.00 0.00 85 1007.9
20260504080116 49 0 0.0 0.0 0.00 0.00 0.00 85 1007.9
20260504070403 51 309 0.0 1.7 0.00 0.00 0.00 84 1008.0
20260504070303 51 309 0.0 1.7 0.00 0.00 0.00 84 1008.0
20260504070204 51 309 0.0 1.7 0.00 0.00 0.00 84 1008.0
20260504060203 52 0 0.0 0.0 0.00 0.00 0.00 83 1008.1
20260504050718 53 0 0.0 0.0 0.00 0.00 0.00 83 1008.2
20260504050616 53 0 0.0 0.0 0.00 0.00 0.00 83 1008.1
20260504050603 53 0 0.0 0.0 0.00 0.00 0.00 82 1008.1
20260504050303 53 0 0.0 0.0 0.00 0.00 0.00 82 1008.1
20260504050204 53 0 0.0 0.0 0.00 0.00 0.00 82 1008.0
20260504050103 53 0 0.0 0.0 0.00 0.00 0.00 82 1008.0
20260504050003 53 0 0.0 0.0 0.00 0.00 0.00 82 1008.0
20260504045903 53 0 0.0 0.0 0.00 0.00 0.00 82 1008.1
20260504045804 53 0 0.0 0.0 0.00 0.00 0.00 82 1008.1
20260504045703 53 0 0.0 0.0 0.00 0.00 0.00 82 1008.0
20260504045618 53 0 0.0 0.0 0.00 0.00 0.00 82 1008.0
20260504045519 54 0 0.0 0.0 0.00 0.00 0.00 82 1008.0
20260504045503 54 0 0.0 0.0 0.00 0.00 0.00 82 1008.1
20260504045418 54 0 0.0 0.0 0.00 0.00 0.00 82 1008.0
20260504045103 54 0 0.0 0.0 0.00 0.00 0.00 82 1008.1
20260504045003 54 0 0.0 0.0 0.00 0.00 0.00 82 1008.1
20260504044917 54 0 0.0 0.0 0.00 0.00 0.00 82 1008.1
20260504044903 54 0 0.0 0.0 0.00 0.00 0.00 82 1008.0
20260504044803 54 0 0.0 0.0 0.00 0.00 0.00 82 1008.0
20260504044603 54 0 0.0 0.0 0.00 0.00 0.00 82 1008.1
20260504044503 54 0 0.0 0.0 0.00 0.00 0.00 82 1008.0
20260504044403 54 0 0.0 0.0 0.00 0.00 0.00 82 1008.0
20260504044318 54 0 0.0 0.0 0.00 0.00 0.00 82 1008.0
20260504044303 54 0 0.0 0.0 0.00 0.00 0.00 82 1008.1
20260504044203 54 0 0.0 0.0 0.00 0.00 0.00 82 1008.0
20260504044003 54 0 0.0 0.0 0.00 0.00 0.00 82 1008.0
20260504043903 54 0 0.0 0.0 0.00 0.00 0.00 82 1008.1
20260504043803 54 0 0.0 0.0 0.00 0.00 0.00 82 1008.0
20260504043703 54 0 0.0 0.0 0.00 0.00 0.00 82 1008.0
20260504043604 54 0 0.0 0.0 0.00 0.00 0.00 82 1008.1
20260504043503 54 309 0.0 0.9 0.00 0.00 0.00 82 1008.0
20260504043403 54 309 0.0 0.9 0.00 0.00 0.00 82 1008.0
20260504043303 54 309 0.0 0.9 0.00 0.00 0.00 82 1008.0
20260504043203 54 309 0.0 0.9 0.00 0.00 0.00 82 1008.1
20260504043103 54 309 0.0 0.9 0.00 0.00 0.00 82 1008.0
20260504043003 54 309 0.0 0.9 0.00 0.00 0.00 82 1008.0
20260504042903 54 309 0.0 0.9 0.00 0.00 0.00 82 1008.0
20260504042803 54 309 0.0 0.9 0.00 0.00 0.00 82 1008.0
20260504042703 55 309 0.0 0.9 0.00 0.00 0.00 82 1008.0
20260504042603 55 309 0.0 0.9 0.00 0.00 0.00 81 1008.0
20260504042403 55 309 0.0 0.9 0.00 0.00 0.00 81 1008.0
20260504042304 55 309 0.0 0.9 0.00 0.00 0.00 81 1008.0
20260504042203 55 309 0.0 0.9 0.00 0.00 0.00 81 1007.9
20260504042103 55 309 0.0 0.9 0.00 0.00 0.00 81 1007.9
20260504041903 55 309 0.0 0.9 0.00 0.00 0.00 81 1008.0
20260504041803 55 309 0.0 0.9 0.00 0.00 0.00 81 1008.0
20260504041703 55 309 0.0 1.7 0.00 0.00 0.00 81 1008.0
20260504041603 55 309 0.0 1.7 0.00 0.00 0.00 81 1008.0
20260504041503 55 309 0.0 1.7 0.00 0.00 0.00 81 1008.0
20260504041403 55 309 0.0 1.7 0.00 0.00 0.00 81 1008.1
20260504041303 55 309 0.0 1.7 0.00 0.00 0.00 81 1008.0
20260504041203 55 309 0.0 1.7 0.00 0.00 0.00 81 1008.0
20260504041103 55 309 0.0 1.7 0.00 0.00 0.00 81 1008.0
20260504041004 55 309 0.0 1.7 0.00 0.00 0.00 81 1008.1
20260504040903 55 309 0.0 1.7 0.00 0.00 0.00 81 1008.0
20260504040803 55 309 0.0 1.7 0.00 0.00 0.00 81 1008.0
20260504040604 55 309 0.0 1.7 0.00 0.00 0.00 81 1008.1
20260504040503 55 309 0.0 1.7 0.00 0.00 0.00 80 1008.0
20260504040404 55 309 0.0 1.7 0.00 0.00 0.00 80 1008.1
20260504040303 56 309 0.0 1.7 0.00 0.00 0.00 80 1008.1
20260504040103 56 309 0.0 1.7 0.00 0.00 0.00 80 1008.0
20260504040007 56 309 0.0 1.7 0.00 0.00 0.00 80 1008.0
20260504035804 56 309 0.0 1.7 0.00 0.00 0.00 80 1008.1
20260504035703 56 309 0.0 0.9 0.00 0.00 0.00 80 1008.1
20260504035503 56 309 0.0 0.9 0.00 0.00 0.00 80 1008.0
20260504035409 56 309 0.0 0.9 0.00 0.00 0.00 79 1008.0
20260504035304 56 309 0.0 0.9 0.00 0.00 0.00 79 1008.0
20260504035203 56 309 0.0 0.9 0.00 0.00 0.00 79 1008.0
20260504035103 56 309 0.0 0.9 0.00 0.00 0.00 79 1007.9
20260504035003 56 309 0.0 0.9 0.00 0.00 0.00 79 1008.0
20260504034903 56 309 0.0 0.9 0.00 0.00 0.00 79 1008.0
20260504034803 56 309 0.0 0.9 0.00 0.00 0.00 79 1008.0
20260504034703 56 309 0.0 0.9 0.00 0.00 0.00 79 1008.0
20260504034603 56 309 0.0 0.9 0.00 0.00 0.00 79 1008.0
20260504034503 56 309 0.0 1.7 0.00 0.00 0.00 79 1007.9
20260504034403 56 309 0.0 1.7 0.00 0.00 0.00 79 1008.0
20260504034303 56 309 0.0 1.7 0.00 0.00 0.00 78 1008.0
20260504034203 57 309 0.0 1.7 0.00 0.00 0.00 78 1008.1
20260504034103 57 309 0.0 1.7 0.00 0.00 0.00 78 1008.0
20260504034003 57 309 0.0 1.7 0.00 0.00 0.00 78 1008.1
20260504033803 57 309 0.0 1.7 0.00 0.00 0.00 78 1008.1
20260504033703 57 309 0.0 1.7 0.00 0.00 0.00 78 1008.1
20260504033603 57 309 0.0 1.7 0.00 0.00 0.00 78 1008.1
20260504033504 57 309 0.0 1.7 0.00 0.00 0.00 78 1008.1
20260504033404 57 309 0.0 1.7 0.00 0.00 0.00 77 1008.1
20260504033303 57 309 0.0 1.7 0.00 0.00 0.00 77 1008.2
20260504033204 57 309 0.0 1.7 0.00 0.00 0.00 77 1008.2
20260504033103 57 309 0.0 1.7 0.00 0.00 0.00 77 1008.0
20260504033003 57 309 0.0 1.7 0.00 0.00 0.00 77 1008.0
20260504032903 57 308 0.0 1.7 0.00 0.00 0.00 77 1008.0
20260504032803 57 308 0.0 1.7 0.00 0.00 0.00 77 1008.1
20260504032703 58 307 0.9 1.7 0.00 0.00 0.00 76 1008.0
20260504032603 58 306 0.9 1.7 0.00 0.00 0.00 76 1007.9
20260504032503 58 306 0.9 1.7 0.00 0.00 0.00 76 1007.9
20260504032403 58 305 0.9 1.7 0.00 0.00 0.00 76 1007.9
20260504032304 58 306 0.9 1.7 0.00 0.00 0.00 76 1007.9
20260504032218 58 305 0.9 1.7 0.00 0.00 0.00 76 1007.9
20260504032203 58 305 0.9 2.6 0.00 0.00 0.00 76 1007.9
20260504032103 58 306 0.9 2.6 0.00 0.00 0.00 76 1007.9
20260504031903 58 307 0.9 2.6 0.00 0.00 0.00 76 1007.9
20260504031804 58 307 0.9 2.6 0.00 0.00 0.00 75 1007.9
20260504031703 58 306 0.9 2.6 0.00 0.00 0.00 75 1007.8
20260504031603 58 308 0.9 2.6 0.00 0.00 0.00 75 1007.9
20260504031516 58 309 0.9 2.6 0.00 0.00 0.00 75 1007.9
20260504031504 58 310 0.9 2.6 0.00 0.00 0.00 75 1007.9
20260504031419 58 312 0.9 2.6 0.00 0.00 0.00 75 1007.8
20260504031403 59 312 0.9 2.6 0.00 0.00 0.00 75 1007.9
20260504031103 59 310 1.7 3.5 0.00 0.00 0.00 75 1007.9
20260504031019 59 307 1.7 3.5 0.00 0.00 0.00 74 1007.9
20260504031003 59 306 1.7 3.5 0.00 0.00 0.00 75 1007.9
20260504030903 59 308 1.7 4.3 0.00 0.00 0.00 74 1008.0
20260504030703 59 306 1.7 4.3 0.00 0.00 0.00 74 1007.9
20260504030603 59 304 1.7 4.3 0.00 0.00 0.00 74 1007.9
20260504030503 59 302 1.7 4.3 0.00 0.00 0.00 74 1007.9
20260504030403 60 301 1.7 4.3 0.00 0.00 0.00 74 1007.9
20260504030304 60 302 1.7 4.3 0.00 0.00 0.00 74 1007.9
20260504030203 60 303 1.7 4.3 0.00 0.00 0.00 74 1007.9
20260504030003 60 304 0.9 4.3 0.00 0.00 0.00 73 1007.9
20260504025803 60 303 0.9 3.5 0.00 0.00 0.00 73 1007.9
20260504025703 60 303 0.9 3.5 0.00 0.00 0.00 73 1007.9
20260504025403 60 302 1.7 3.5 0.00 0.00 0.00 73 1007.9
20260504025304 60 300 1.7 3.5 0.00 0.00 0.00 73 1008.0
20260504025203 60 303 1.7 3.5 0.00 0.00 0.00 73 1007.9
20260504025103 60 306 1.7 3.5 0.00 0.00 0.00 73 1007.9
20260504024918 60 311 1.7 3.5 0.00 0.00 0.00 73 1008.0
20260504024904 60 311 0.9 3.5 0.00 0.00 0.00 73 1007.9
20260504024803 60 312 1.7 3.5 0.00 0.00 0.00 73 1007.9
20260504024717 61 311 1.7 3.5 0.00 0.00 0.00 73 1007.9
20260504024603 61 312 1.7 3.5 0.00 0.00 0.00 73 1007.9
20260504024403 61 310 1.7 3.5 0.00 0.00 0.00 73 1007.9
20260504024303 61 310 1.7 4.3 0.00 0.00 0.00 73 1007.9
20260504024203 61 307 1.7 4.3 0.00 0.00 0.00 73 1007.9
20260504024103 61 306 1.7 4.3 0.00 0.00 0.00 72 1007.9
20260504024003 61 306 1.7 4.3 0.00 0.00 0.00 72 1007.9
20260504023904 61 306 1.7 4.3 0.00 0.00 0.00 72 1007.9
20260504023703 61 305 1.7 4.3 0.00 0.00 0.00 72 1007.9
20260504023617 61 306 1.7 4.3 0.00 0.00 0.00 72 1007.9
20260504023604 61 308 1.7 4.3 0.00 0.00 0.00 72 1007.9
20260504023503 61 310 1.7 5.2 0.00 0.00 0.00 72 1007.9
20260504023303 61 312 1.7 5.2 0.00 0.00 0.00 72 1007.9
20260504023204 61 311 1.7 5.2 0.00 0.00 0.00 72 1008.0
20260504023103 61 312 1.7 5.2 0.00 0.00 0.00 72 1008.0
20260504023004 61 310 1.7 5.2 0.00 0.00 0.00 72 1007.9
20260504022903 61 306 1.7 5.2 0.00 0.00 0.00 72 1008.0
20260504022804 61 306 1.7 5.2 0.00 0.00 0.00 72 1007.9
20260504022703 61 306 1.7 5.2 0.00 0.00 0.00 71 1008.1
20260504022604 61 305 1.7 5.2 0.00 0.00 0.00 71 1008.0
20260504022503 61 303 1.7 4.3 0.00 0.00 0.00 71 1008.0
20260504022403 61 303 1.7 4.3 0.00 0.00 0.00 71 1007.9
20260504022304 62 302 0.9 3.5 0.00 0.00 0.00 71 1008.0
20260504022218 62 304 0.9 3.5 0.00 0.00 0.00 71 1008.1
20260504022203 62 305 0.9 3.5 0.00 0.00 0.00 71 1008.0
20260504022104 62 303 0.9 3.5 0.00 0.00 0.00 71 1008.1
20260504022019 62 304 0.9 4.3 0.00 0.00 0.00 71 1008.0
20260504021903 62 303 1.7 4.3 0.00 0.00 0.00 71 1008.0
20260504021703 62 299 1.7 4.3 0.00 0.00 0.00 71 1008.0
20260504021604 62 299 1.7 4.3 0.00 0.00 0.00 71 1008.1
20260504021504 62 302 1.7 4.3 0.00 0.00 0.00 71 1007.9
20260504021404 62 304 1.7 4.3 0.00 0.00 0.00 70 1008.1
20260504021303 62 304 1.7 4.3 0.00 0.00 0.00 70 1008.1
20260504021204 62 302 1.7 4.3 0.00 0.00 0.00 70 1008.0
20260504021103 62 303 1.7 4.3 0.00 0.00 0.00 70 1008.1
20260504021003 62 303 1.7 4.3 0.00 0.00 0.00 70 1008.1
20260504020903 62 305 1.7 4.3 0.00 0.00 0.00 70 1008.0
20260504020818 62 306 1.7 4.3 0.00 0.00 0.00 70 1008.1
20260504020703 62 308 1.7 4.3 0.00 0.00 0.00 70 1008.1
20260504020503 62 306 1.7 4.3 0.00 0.00 0.00 69 1008.1
20260504020403 62 305 1.7 4.3 0.00 0.00 0.00 69 1008.1
20260504020203 62 308 1.7 4.3 0.00 0.00 0.00 69 1008.0
20260504020103 62 307 1.7 4.3 0.00 0.00 0.00 69 1008.1
20260504020017 62 308 1.7 4.3 0.00 0.00 0.00 69 1008.1
20260504020003 62 307 1.7 4.3 0.00 0.00 0.00 69 1008.0
20260504015903 62 304 1.7 4.3 0.00 0.00 0.00 68 1008.0
20260504015703 62 301 1.7 5.2 0.00 0.00 0.00 68 1008.1
20260504015603 62 301 1.7 5.2 0.00 0.00 0.00 68 1008.1
20260504015518 63 302 1.7 5.2 0.00 0.00 0.00 68 1008.1
20260504015505 63 303 1.7 5.2 0.00 0.00 0.00 68 1008.1
20260504015403 63 302 1.7 5.2 0.00 0.00 0.00 68 1008.1
20260504015317 63 300 1.7 5.2 0.00 0.00 0.00 68 1008.1
20260504015203 63 299 1.7 5.2 0.00 0.00 0.00 67 1008.1
20260504015003 63 297 1.7 5.2 0.00 0.00 0.00 67 1008.2
20260504014908 63 298 1.7 5.2 0.00 0.00 0.00 67 1008.1
20260504014803 63 297 1.7 5.2 0.00 0.00 0.00 67 1008.1
20260504014604 63 297 1.7 5.2 0.00 0.00 0.00 66 1008.2
20260504014504 63 297 1.7 3.5 0.00 0.00 0.00 66 1008.2
20260504014403 63 299 1.7 3.5 0.00 0.00 0.00 66 1008.2
20260504014317 63 298 1.7 7.0 0.00 0.00 0.00 66 1008.3
20260504014304 64 298 1.7 7.0 0.00 0.00 0.00 66 1008.3
20260504014203 64 300 2.6 7.8 0.00 0.00 0.00 66 1008.2
20260504014003 64 302 2.6 7.8 0.00 0.00 0.00 65 1008.3
20260504013903 64 303 2.6 7.8 0.00 0.00 0.00 65 1008.3
20260504013803 64 304 2.6 7.8 0.00 0.00 0.00 65 1008.3
20260504013703 64 303 2.6 7.8 0.00 0.00 0.00 65 1008.3
20260504013619 64 305 2.6 7.8 0.00 0.00 0.00 65 1008.3
20260504013603 64 304 2.6 7.8 0.00 0.00 0.00 65 1008.3
20260504013303 64 302 1.7 7.8 0.00 0.00 0.00 64 1008.4
20260504013219 64 301 1.7 7.8 0.00 0.00 0.00 64 1008.4
20260504013203 64 302 1.7 6.1 0.00 0.00 0.00 64 1008.4
20260504013118 64 303 1.7 6.1 0.00 0.00 0.00 64 1008.4
20260504013103 64 304 1.7 6.1 0.00 0.00 0.00 64 1008.4
20260504012818 64 303 1.7 6.1 0.00 0.00 0.00 64 1008.4
20260504012803 64 303 1.7 6.1 0.00 0.00 0.00 64 1008.5
20260504012703 64 304 1.7 6.1 0.00 0.00 0.00 64 1008.4
20260504012503 64 307 1.7 7.0 0.00 0.00 0.00 64 1008.4
20260504012403 64 304 1.7 7.0 0.00 0.00 0.00 65 1008.5
20260504012304 64 304 1.7 7.0 0.00 0.00 0.00 65 1008.5
20260504012203 64 301 1.7 7.0 0.00 0.00 0.00 65 1008.5
20260504012103 64 297 1.7 7.0 0.00 0.00 0.00 65 1008.5
20260504012004 64 299 1.7 7.0 0.00 0.00 0.00 65 1008.5
20260504011904 64 298 1.7 7.0 0.00 0.00 0.00 65 1008.6
20260504011818 64 297 1.7 7.0 0.00 0.00 0.00 65 1008.6
20260504011805 64 297 1.7 7.0 0.00 0.00 0.00 65 1008.5
20260504011703 64 298 1.7 7.0 0.00 0.00 0.00 65 1008.6
20260504011517 64 298 1.7 5.2 0.00 0.00 0.00 65 1008.5
20260504011503 64 299 1.7 5.2 0.00 0.00 0.00 65 1008.5
20260504011418 64 300 1.7 5.2 0.00 0.00 0.00 65 1008.6
20260504011403 64 300 1.7 5.2 0.00 0.00 0.00 65 1008.6
20260504011317 64 302 1.7 5.2 0.00 0.00 0.00 65 1008.7
20260504011003 64 302 2.6 7.0 0.00 0.00 0.00 64 1008.6
20260504010904 64 301 1.7 7.0 0.00 0.00 0.00 64 1008.6
20260504010805 64 302 1.7 7.0 0.00 0.00 0.00 64 1008.7
20260504010703 64 304 1.7 7.0 0.00 0.00 0.00 64 1008.7
20260504010604 64 304 1.7 7.0 0.00 0.00 0.00 64 1008.6
20260504010503 64 302 1.7 7.0 0.00 0.00 0.00 64 1008.6
20260504010404 64 302 1.7 7.0 0.00 0.00 0.00 63 1008.6
20260504010304 64 301 1.7 5.2 0.00 0.00 0.00 64 1008.6
20260504010204 64 302 1.7 5.2 0.00 0.00 0.00 64 1008.7
20260504010104 64 303 1.7 6.1 0.00 0.00 0.00 64 1008.7
20260504010006 64 303 1.7 6.1 0.00 0.00 0.00 63 1008.7
20260504005904 65 304 1.7 6.1 0.00 0.00 0.00 63 1008.7
20260504005803 65 304 1.7 6.1 0.00 0.00 0.00 63 1008.8
20260504005503 65 299 1.7 6.1 0.00 0.00 0.00 62 1008.8
20260504005405 65 300 1.7 6.1 0.00 0.00 0.00 62 1008.9
20260504005304 65 302 1.7 6.1 0.00 0.00 0.00 62 1008.9
20260504005204 65 304 1.7 6.1 0.00 0.00 0.00 63 1008.9
20260504005104 65 305 1.7 6.1 0.00 0.00 0.00 63 1008.9
20260504005004 65 303 1.7 6.1 0.00 0.00 0.00 63 1008.9
20260504004903 65 306 1.7 6.1 0.00 0.00 0.00 63 1008.9
20260504004804 65 304 2.6 6.1 0.00 0.00 0.00 63 1008.9
20260504004703 65 303 2.6 6.1 0.00 0.00 0.00 63 1008.9
20260504004603 65 303 2.6 6.1 0.00 0.00 0.00 63 1008.9
20260504004503 65 304 1.7 6.1 0.00 0.00 0.00 63 1009.0
20260504004404 65 303 2.6 6.1 0.00 0.00 0.00 63 1008.9
20260504004303 65 302 1.7 6.1 0.00 0.00 0.00 62 1008.9
20260504004217 65 300 1.7 6.1 0.00 0.00 0.00 61 1008.9
20260504004203 65 298 1.7 6.1 0.00 0.00 0.00 61 1008.9
20260504004103 65 297 2.6 5.2 0.00 0.00 0.00 61 1009.0
20260504003903 66 299 1.7 7.0 0.00 0.00 0.00 61 1009.0
20260504003803 66 300 2.6 7.0 0.00 0.00 0.00 61 1009.0
20260504003703 66 302 2.6 7.8 0.00 0.00 0.00 61 1008.9
20260504003604 66 303 2.6 7.8 0.00 0.00 0.00 61 1008.9
20260504003503 66 303 2.6 7.8 0.00 0.00 0.00 61 1008.9
20260504003403 66 302 2.6 7.8 0.00 0.00 0.00 61 1009.1
20260504003203 66 306 2.6 7.8 0.00 0.00 0.00 61 1009.1
20260504003103 66 305 2.6 7.8 0.00 0.00 0.00 60 1009.1
20260504003004 66 304 2.6 7.8 0.00 0.00 0.00 60 1009.1
20260504002903 66 304 2.6 7.8 0.00 0.00 0.00 59 1009.1
20260504002804 66 304 2.6 7.8 0.00 0.00 0.00 59 1009.0
20260504002703 66 302 2.6 7.0 0.00 0.00 0.00 59 1009.1
20260504002603 66 301 2.6 7.0 0.00 0.00 0.00 60 1009.1
20260504002503 66 301 2.6 7.0 0.00 0.00 0.00 59 1009.1
20260504002403 66 300 2.6 7.0 0.00 0.00 0.00 60 1009.1
20260504002304 66 300 2.6 7.0 0.00 0.00 0.00 61 1009.1
20260504002203 66 299 2.6 7.0 0.00 0.00 0.00 60 1009.1
20260504002003 66 299 2.6 7.0 0.00 0.00 0.00 60 1009.1
20260504001904 66 297 1.7 6.1 0.00 0.00 0.00 59 1009.2
20260504001803 66 297 1.7 6.1 0.00 0.00 0.00 60 1009.2
20260504001703 66 300 1.7 6.1 0.00 0.00 0.00 59 1009.1
20260504001603 66 299 1.7 6.1 0.00 0.00 0.00 59 1009.2
20260504001503 66 299 2.6 6.1 0.00 0.00 0.00 60 1009.1
20260504001403 66 301 1.7 7.0 0.00 0.00 0.00 59 1009.1
20260504001316 66 298 1.7 7.0 0.00 0.00 0.00 59 1009.1
20260504001303 67 299 1.7 7.0 0.00 0.00 0.00 59 1009.1
20260504001204 67 297 1.7 7.0 0.00 0.00 0.00 59 1009.1
20260504001003 67 298 2.6 7.0 0.00 0.00 0.00 58 1009.2
20260504000904 67 300 2.6 7.0 0.00 0.00 0.00 58 1009.1
20260504000803 67 299 2.6 7.0 0.00 0.00 0.00 57 1009.1
20260504000718 67 299 2.6 7.0 0.00 0.00 0.00 57 1009.2
20260504000704 67 299 2.6 7.0 0.00 0.00 0.00 58 1009.1
20260504000603 67 300 2.6 7.0 0.00 0.00 0.00 57 1009.2
20260504000517 67 301 2.6 7.0 0.00 0.00 0.00 58 1009.2
20260504000316 67 302 2.6 7.0 0.00 0.00 0.00 58 1009.2
20260504000204 67 303 2.6 7.0 0.00 0.00 0.00 58 1009.2
20260504000004 67 303 1.7 7.0 0.00 0.00 0.00 58 1009.3
20260503235903 67 301 1.7 7.0 0.00 0.00 0.00 59 1009.2
20260503235803 67 303 1.7 7.8 0.00 0.00 0.00 58 1009.2
20260503235703 67 305 1.7 7.8 0.00 0.00 0.00 58 1009.2
20260503235604 67 310 2.6 8.7 0.00 0.00 0.00 58 1009.2
20260503235503 67 312 2.6 8.7 0.00 0.00 0.00 58 1009.3
20260503235403 67 312 2.6 8.7 0.00 0.00 0.00 59 1009.3
20260503235304 67 308 2.6 8.7 0.00 0.00 0.00 58 1009.3
20260503235203 67 308 2.6 8.7 0.00 0.00 0.00 58 1009.3
20260503235103 67 310 2.6 8.7 0.00 0.00 0.00 59 1009.3
20260503235003 67 309 2.6 8.7 0.00 0.00 0.00 59 1009.3
20260503234903 67 311 2.6 8.7 0.00 0.00 0.00 58 1009.3
20260503234803 67 310 2.6 8.7 0.00 0.00 0.00 58 1009.3
20260503234703 67 309 2.6 8.7 0.00 0.00 0.00 58 1009.3
20260503234603 67 304 2.6 7.8 0.00 0.00 0.00 58 1009.3
20260503234503 68 305 2.6 7.8 0.00 0.00 0.00 59 1009.3
20260503234403 68 307 2.6 7.8 0.00 0.00 0.00 58 1009.3
20260503234303 68 309 2.6 7.8 0.00 0.00 0.00 58 1009.3
20260503234203 68 312 2.6 7.8 0.00 0.00 0.00 58 1009.3
20260503234118 68 310 2.6 7.8 0.00 0.00 0.00 57 1009.4
20260503234103 68 310 2.6 7.8 0.00 0.00 0.00 57 1009.4
20260503234005 68 311 2.6 7.8 0.00 0.00 0.00 58 1009.3
20260503233804 68 307 2.6 7.0 0.00 0.00 0.00 58 1009.4
20260503233703 68 308 2.6 7.0 0.00 0.00 0.00 58 1009.3
20260503233616 68 306 2.6 8.7 0.00 0.00 0.00 58 1009.5
20260503233603 68 307 2.6 8.7 0.00 0.00 0.00 58 1009.4
20260503233503 68 304 2.6 8.7 0.00 0.00 0.00 59 1009.5
20260503233304 68 309 2.6 8.7 0.00 0.00 0.00 59 1009.4
20260503233203 67 308 2.6 8.7 0.00 0.00 0.00 59 1009.5
20260503233103 67 308 2.6 8.7 0.00 0.00 0.00 59 1009.5
20260503233003 67 307 2.6 8.7 0.00 0.00 0.00 59 1009.5
20260503232903 67 308 2.6 8.7 0.00 0.00 0.00 60 1009.5
20260503232803 67 308 2.6 8.7 0.00 0.00 0.00 59 1009.6
20260503232703 67 308 2.6 8.7 0.00 0.00 0.00 59 1009.6
20260503232517 67 311 3.5 8.7 0.00 0.00 0.00 59 1009.6
20260503232503 67 310 2.6 8.7 0.00 0.00 0.00 59 1009.6
20260503232405 67 306 3.5 8.7 0.00 0.00 0.00 59 1009.6
20260503232203 67 304 3.5 8.7 0.00 0.00 0.00 60 1009.6
20260503232103 67 305 3.5 8.7 0.00 0.00 0.00 60 1009.6
20260503232003 67 304 3.5 8.7 0.00 0.00 0.00 59 1009.6
20260503231903 67 304 2.6 8.7 0.00 0.00 0.00 60 1009.6
20260503231803 67 305 3.5 8.7 0.00 0.00 0.00 60 1009.6
20260503231703 67 304 2.6 8.7 0.00 0.00 0.00 59 1009.7
20260503231603 67 302 2.6 8.7 0.00 0.00 0.00 60 1009.7
20260503231503 67 302 2.6 8.7 0.00 0.00 0.00 60 1009.7
20260503231417 67 303 2.6 8.7 0.00 0.00 0.00 60 1009.6
20260503231403 67 301 2.6 8.7 0.00 0.00 0.00 60 1009.6
20260503231318 67 302 2.6 8.7 0.00 0.00 0.00 61 1009.6
20260503231303 67 303 2.6 7.8 0.00 0.00 0.00 61 1009.6
20260503231219 67 301 2.6 8.7 0.00 0.00 0.00 61 1009.7
20260503230903 66 306 3.5 8.7 0.00 0.00 0.00 60 1009.6
20260503230803 66 306 3.5 8.7 0.00 0.00 0.00 60 1009.8
20260503230703 67 306 3.5 8.7 0.00 0.00 0.00 60 1009.7
20260503230603 66 306 3.5 8.7 0.00 0.00 0.00 60 1009.7
20260503230503 66 305 3.5 8.7 0.00 0.00 0.00 60 1009.7
20260503230403 66 305 3.5 8.7 0.00 0.00 0.00 60 1009.8
20260503230303 66 305 3.5 9.6 0.00 0.00 0.00 60 1009.7
20260503230203 66 307 3.5 9.6 0.00 0.00 0.00 60 1009.8
20260503230103 66 305 3.5 9.6 0.00 0.00 0.00 59 1009.8
20260503230018 66 302 3.5 9.6 0.00 0.00 0.00 59 1009.9
20260503230005 66 302 2.6 9.6 0.00 0.00 0.00 59 1009.9
20260503225903 66 301 2.6 9.6 0.00 0.00 0.00 59 1009.8
20260503225704 66 300 2.6 9.6 0.00 0.00 0.00 59 1009.8
20260503225603 66 300 2.6 9.6 0.00 0.00 0.00 59 1009.9
20260503225503 66 302 2.6 9.6 0.00 0.00 0.00 58 1009.9
20260503225403 66 302 2.6 9.6 0.00 0.00 0.00 58 1009.9
20260503225304 66 303 2.6 7.8 0.00 0.00 0.00 58 1009.9
20260503225217 66 301 2.6 7.8 0.00 0.00 0.00 57 1009.9
20260503225203 66 300 2.6 7.0 0.00 0.00 0.00 58 1009.9
20260503225103 66 302 2.6 7.0 0.00 0.00 0.00 58 1009.9
20260503224903 66 303 2.6 7.8 0.00 0.00 0.00 58 1010.0
20260503224803 66 301 2.6 7.8 0.00 0.00 0.00 58 1009.9
20260503224703 66 302 2.6 7.8 0.00 0.00 0.00 59 1009.9
20260503224603 66 304 2.6 7.8 0.00 0.00 0.00 59 1009.9
20260503224503 66 305 2.6 7.8 0.00 0.00 0.00 58 1009.9
20260503224403 66 306 2.6 7.8 0.00 0.00 0.00 58 1009.9
20260503224303 66 305 2.6 7.8 0.00 0.00 0.00 59 1010.0
20260503224203 66 305 2.6 7.8 0.00 0.00 0.00 60 1010.0
20260503224103 66 303 2.6 7.8 0.00 0.00 0.00 59 1010.0
20260503224004 66 302 2.6 7.0 0.00 0.00 0.00 59 1010.0
20260503223918 66 303 2.6 7.0 0.00 0.00 0.00 59 1009.9
20260503223903 66 304 2.6 7.0 0.00 0.00 0.00 59 1010.0
20260503223803 66 304 2.6 7.0 0.00 0.00 0.00 60 1010.0
20260503223603 66 302 2.6 7.8 0.00 0.00 0.00 59 1010.1
20260503223503 66 299 2.6 7.8 0.00 0.00 0.00 59 1010.1
20260503223403 66 298 2.6 7.8 0.00 0.00 0.00 59 1010.2
20260503223303 66 300 2.6 7.8 0.00 0.00 0.00 59 1010.1
20260503223203 66 301 2.6 7.8 0.00 0.00 0.00 58 1010.0
20260503223103 66 301 2.6 7.8 0.00 0.00 0.00 59 1010.1
20260503223003 66 304 2.6 7.8 0.00 0.00 0.00 60 1010.1
20260503222903 66 305 2.6 7.8 0.00 0.00 0.00 60 1010.2
20260503222803 66 307 2.6 7.8 0.00 0.00 0.00 60 1010.2
20260503222603 66 308 2.6 7.0 0.00 0.00 0.00 61 1010.3
20260503222517 66 309 2.6 7.0 0.00 0.00 0.00 61 1010.2
20260503222503 66 309 2.6 7.0 0.00 0.00 0.00 61 1010.2
20260503222403 66 312 2.6 7.0 0.00 0.00 0.00 61 1010.2
20260503222218 66 310 2.6 9.6 0.00 0.00 0.00 61 1010.3
20260503222203 66 309 3.5 9.6 0.00 0.00 0.00 61 1010.3
20260503222103 66 309 3.5 9.6 0.00 0.00 0.00 60 1010.2
20260503221903 66 308 2.6 9.6 0.00 0.00 0.00 60 1010.3
20260503221816 66 307 2.6 9.6 0.00 0.00 0.00 59 1010.3
20260503221803 66 308 3.5 9.6 0.00 0.00 0.00 59 1010.3
20260503221703 66 310 3.5 10.4 0.00 0.00 0.00 59 1010.3
20260503221503 66 307 2.6 10.4 0.00 0.00 0.00 59 1010.3
20260503221403 66 305 2.6 10.4 0.00 0.00 0.00 59 1010.3
20260503221303 67 304 2.6 10.4 0.00 0.00 0.00 58 1010.3
20260503221203 67 304 2.6 10.4 0.00 0.00 0.00 58 1010.4
20260503221104 67 303 2.6 10.4 0.00 0.00 0.00 59 1010.3
20260503221003 67 303 2.6 10.4 0.00 0.00 0.00 59 1010.4
20260503220904 67 301 2.6 10.4 0.00 0.00 0.00 58 1010.4
20260503220816 67 300 2.6 10.4 0.00 0.00 0.00 59 1010.3
20260503220703 67 297 2.6 9.6 0.00 0.00 0.00 59 1010.4
20260503220503 67 301 2.6 9.6 0.00 0.00 0.00 58 1010.3
20260503220403 67 302 2.6 9.6 0.00 0.00 0.00 58 1010.3
20260503220303 67 304 2.6 6.1 0.00 0.00 0.00 60 1010.4
20260503220203 67 307 2.6 7.0 0.00 0.00 0.00 59 1010.4
20260503220104 67 306 2.6 7.8 0.00 0.00 0.00 58 1010.5
20260503220003 67 306 2.6 7.8 0.00 0.00 0.00 58 1010.4
20260503215903 67 307 2.6 7.8 0.00 0.00 0.00 58 1010.4
20260503215803 67 305 2.6 7.8 0.00 0.00 0.00 58 1010.4
20260503215717 67 305 2.6 7.8 0.00 0.00 0.00 58 1010.4
20260503215603 67 302 2.6 7.8 0.00 0.00 0.00 58 1010.4
20260503215518 67 303 2.6 7.8 0.00 0.00 0.00 58 1010.5
20260503215203 67 297 2.6 7.8 0.00 0.00 0.00 57 1010.4